This is the latest recevied weather packets stored in our database for station/object KA7EII-13. If no packets are shown the sender has not sent any weather packets the latest 10 day(s).
| Time | Temp. | Humidity | Pressure | Rain* | Wind** | Luminosity | Snow |
|---|---|---|---|---|---|---|---|
| 1778171862 | 18.33° C | 40% | 1104.2 hPa | 0 mm | - | 521 W/m² | - |
| 1778171560 | 18.33° C | 40% | 1104.2 hPa | 0 mm | - | 665 W/m² | - |
| 1778171255 | 18.33° C | 40% | 1104.2 hPa | 0 mm | - | 507 W/m² | - |
| 1778170952 | 17.78° C | 41% | 1104.5 hPa | 0 mm | - | 669 W/m² | - |
| 1778170649 | 17.78° C | 40% | 1104.3 hPa | 0 mm | - | 514 W/m² | - |
| 1778170345 | 17.78° C | 41% | 1104.4 hPa | 0 mm | - | 615 W/m² | - |
| 1778170041 | 17.78° C | 39% | 1104.6 hPa | 0 mm | - | 617 W/m² | - |
| 1778169738 | 17.78° C | 39% | 1104.3 hPa | 0 mm | - | 537 W/m² | - |
| 1778169433 | 18.33° C | 39% | 1104.6 hPa | 0 mm | - | 544 W/m² | - |
| 1778169130 | 17.78° C | 39% | 1104.6 hPa | 0 mm | - | 503 W/m² | - |
| 1778168826 | 17.78° C | 41% | 1104.6 hPa | 0 mm | - | 448 W/m² | - |
| 1778168524 | 17.22° C | 41% | 1104.6 hPa | 0 mm | - | 525 W/m² | - |
| 1778168220 | 17.22° C | 42% | 1105 hPa | 0 mm | - | 478 W/m² | - |
| 1778167917 | 17.22° C | 42% | 1105.1 hPa | 0 mm | - | 431 W/m² | - |
| 1778167613 | 17.22° C | 43% | 1104.8 hPa | 0 mm | - | 399 W/m² | - |
| 1778167309 | 16.67° C | 42% | 1104.8 hPa | 0 mm | - | 381 W/m² | - |
| 1778167006 | 16.67° C | 42% | 1105 hPa | 0 mm | - | 380 W/m² | - |
| 1778166703 | 16.67° C | 41% | 1104.7 hPa | 0 mm | - | 357 W/m² | - |
| 1778166400 | 16.67° C | 42% | 1104.5 hPa | 0 mm | - | 329 W/m² | - |
| 1778166096 | 16.67° C | 42% | 1104.6 hPa | 0 mm | - | 310 W/m² | - |
| 1778165791 | 16.67° C | 42% | 1104.7 hPa | 0 mm | - | 317 W/m² | - |
| 1778165490 | 16.67° C | 42% | 1104.6 hPa | 0 mm | - | 312 W/m² | - |
| 1778165185 | 16.67° C | 42% | 1104.6 hPa | 0 mm | - | 288 W/m² | - |
| 1778164884 | 16.67° C | 43% | 1104.6 hPa | 0 mm | - | 255 W/m² | - |
| 1778164580 | 16.11° C | 43% | 1104.7 hPa | 0 mm | - | 254 W/m² | - |
* Rain latest hour (hover to see other rain measurements)
** Current wind speed in m/s (hover to see current wind gust speed)